Volver al catálogo

STARLINK-32188

ActivoComunicacionesVLEO
NORAD 60365·PAYLOAD·🇺🇸 United States

Lanzado Aug 4, 2024 desde Vandenberg Space Force Base

Loading…

Próximos Pases (próximas 24 horas)

TLE

ActualizadoSource: CelesTrak SupGP

Época: Sep 14, 2026, 21:36 UTC

1 60365C 24138L   26257.90048611 -.00046687  00000+0 -15011-2 0  2578
2 60365  53.1584 149.5082 0001326  80.2115 292.9336 15.31729616    12

Sigue STARLINK-32188 en tiempo real con AllMySat

Download on the App Store